Powrót do katalogu

STARLINK-5163

AktywnyŁącznośćVLEO
NORAD 54054·PAYLOAD·🇺🇸 United States

Wystrzelony Oct 20, 2022 z Cape Canaveral Space Force Station

Loading…

Następne Przeloty (najbliższe 24 godziny)

TLE

ŚwieżeSource: CelesTrak SupGP

Epoka: Sep 15, 2026, 03:04 UTC

1 54054C 22136D   26258.12826389 -.00010969  00000+0 -35295-3 0  2585
2 54054  53.1571 201.2806 0001144  96.1496 201.2463 15.31688360    16

Śledź STARLINK-5163 w czasie rzeczywistym z AllMySat

Download on the App Store